Simultaneous Nadir Overpasses (SNOs) Predictions

Prediction of SNOs between LANDSAT-8 and NPP Satellite Orbit:

Table of predicted SNOs for the next 14.0 days since TLE Epoch: 6/29/2019
Index Date (LANDSAT-8) Time (LANDSAT-8) Lat,Lon (LANDSAT-8) SZA (LANDSAT-8 ) Date (NPP) Time (NPP) Lat,Lon (NPP) SZA (NPP ) Distance(km) Time Diff (sec)
1 06/29/2019 06:08:37 -70.92, -94.54 132.39 06/29/2019 06:07:30 -70.98, -96.93 132.24 86.95 67
2 06/29/2019 06:58:18 70.06, 71.82 46.79 06/29/2019 06:57:59 70.06, 71.84 46.80 0.74 19
3 06/29/2019 07:47:48 -69.95,-120.71 133.32 06/29/2019 07:48:40 -69.93,-120.64 133.34 2.90 52
4 07/01/2019 22:25:21 -70.15, 20.18 132.96 07/01/2019 22:24:10 -70.13, 20.19 132.96 1.85 71
5 07/01/2019 23:14:47 70.05,-172.32 46.95 07/01/2019 23:14:54 70.06,-172.39 46.97 3.18 7
6 07/02/2019 00:04:20 -69.77, -5.07 133.32 07/02/2019 00:05:32 -69.77, -4.63 133.34 16.85 72
7 07/04/2019 14:41:51 -70.08, 135.97 132.81 07/04/2019 14:41:04 -70.08, 136.05 132.81 2.95 47
8 07/04/2019 15:31:18 69.98, -56.53 47.10 07/04/2019 15:31:49 70.01, -56.54 47.13 3.44 31
9 07/07/2019 06:08:39 70.83, 85.33 48.17 07/07/2019 06:07:31 70.85, 83.27 48.27 75.01 68
10 07/07/2019 06:58:21 -70.07,-108.17 132.56 07/07/2019 06:58:00 -70.08,-108.18 132.55 0.95 21
11 07/07/2019 07:47:48 69.96, 59.32 47.35 07/07/2019 07:48:44 69.96, 59.31 47.34 0.63 56
12 07/09/2019 22:25:21 70.16,-159.80 47.83 07/09/2019 22:24:14 70.17,-159.87 47.86 2.92 67
13 07/09/2019 23:14:51 -70.05, 7.69 132.26 07/09/2019 23:14:55 -70.03, 7.67 132.29 3.25 4
14 07/10/2019 00:04:23 69.67, 174.79 47.38 07/10/2019 00:05:34 69.64, 175.55 47.32 29.27 71
15 07/12/2019 14:41:50 70.13, -43.95 48.17 07/12/2019 14:41:08 70.12, -44.02 48.16 3.33 42
16 07/12/2019 15:31:21 -69.98, 123.47 131.98 07/12/2019 15:31:49 -69.97, 123.52 131.99 2.03 28




NCC Satellite Simultaneous Nadir Overpasses (SNOs) Prediction Service
